2023/12/08 00:00:00, 0.1, 0.9
2023/12/08 00:10:00, 0.1, 1.0
2023/12/08 00:20:00, 0.0, 0.9
2023/12/08 00:30:00, 0.1, 0.6
2023/12/08 00:40:00, 0.0, 0.9
2023/12/08 00:50:00, 0.1, 0.3
2023/12/08 01:00:00, 0.1,-0.0
2023/12/08 01:10:00, 0.1, 0.3
2023/12/08 01:20:00, 0.0, 0.5
2023/12/08 01:30:00, 0.0, 0.7
2023/12/08 01:40:00, 0.0, 0.4
2023/12/08 01:50:00, 0.0, 0.6
2023/12/08 02:00:00, 0.0, 0.3
2023/12/08 02:10:00, 0.0, 0.3
2023/12/08 02:20:00, 0.0, 0.2
2023/12/08 02:30:00, 0.0, 0.1
2023/12/08 02:40:00, 0.0, 0.5
2023/12/08 02:50:00, 0.0, 0.3
2023/12/08 03:00:00, 0.0, 0.7
2023/12/08 03:10:00, 0.1, 0.3
2023/12/08 03:20:00, 0.1, 0.3
2023/12/08 03:30:00, 0.1, 0.5
2023/12/08 03:40:00, 0.1, 0.4
2023/12/08 03:50:00, 0.1, 0.8
2023/12/08 04:00:00, 0.1, 1.2
2023/12/08 04:10:00, 0.1, 0.5
2023/12/08 04:20:00, 0.1, 0.9
2023/12/08 04:30:00, 0.1, 0.2
2023/12/08 04:40:00, 0.1, 0.9
2023/12/08 04:50:00, 0.1, 0.9
2023/12/08 05:00:00, 0.1, 0.8
2023/12/08 05:10:00, 0.1, 1.3
2023/12/08 05:20:00, 0.0, 0.6
2023/12/08 05:30:00, 0.0,-0.1
2023/12/08 05:40:00, 0.1, 0.2
2023/12/08 05:50:00, 0.0,-0.2
2023/12/08 06:00:00, 0.1, 0.3
2023/12/08 06:10:00, 0.0,-0.5
2023/12/08 06:20:00, 0.0,-0.2
2023/12/08 06:30:00, 0.0,-0.4
2023/12/08 06:40:00, 0.1,-0.3
2023/12/08 06:50:00, 0.0, 0.3
2023/12/08 07:00:00, 0.0,-0.1
2023/12/08 07:10:00, 0.0, 0.3
2023/12/08 07:20:00, 0.1, 0.9
2023/12/08 07:30:00, 0.1, 1.4
2023/12/08 07:40:00, 0.1, 0.9
2023/12/08 07:50:00, 0.2, 0.8
2023/12/08 08:00:00, 0.2, 0.9
2023/12/08 08:10:00, 0.2, 1.3
2023/12/08 08:20:00, 0.1, 2.2
2023/12/08 08:30:00, 0.1, 3.9
2023/12/08 08:40:00, 0.1, 7.8
2023/12/08 08:50:00, 0.1, 9.8
2023/12/08 09:00:00, 0.0, 9.5
2023/12/08 09:10:00, 0.1,10.5
2023/12/08 09:20:00, 0.0,11.6
2023/12/08 09:30:00, 0.0,12.1
2023/12/08 09:40:00, 0.0,13.0
2023/12/08 09:50:00, 0.0,13.0
2023/12/08 10:00:00, 0.0,14.3
2023/12/08 10:10:00, 0.0,15.4
2023/12/08 10:20:00, 0.0,15.9
2023/12/08 10:30:00, 0.0,16.1
2023/12/08 10:40:00, 0.0,17.6
2023/12/08 10:50:00, 0.0,18.0
2023/12/08 11:00:00, 0.0,18.7
2023/12/08 11:10:00, 0.0,18.6
2023/12/08 11:20:00, 0.0,18.8
2023/12/08 11:30:00, 0.0,18.3
2023/12/08 11:40:00, 0.0,17.7
2023/12/08 11:50:00, 0.0,19.1
2023/12/08 12:00:00, 0.0,18.2
2023/12/08 12:10:00, 0.0,18.2
2023/12/08 12:20:00, 0.0,18.3
2023/12/08 12:30:00, 0.0,18.5
2023/12/08 12:40:00, 0.0,19.1
2023/12/08 12:50:00, 0.0,18.8
2023/12/08 13:00:00, 0.0,18.6
2023/12/08 13:10:00, 0.0,18.9
2023/12/08 13:20:00, 0.0,18.6
2023/12/08 13:30:00, 0.0,18.0
2023/12/08 13:40:00, 0.0,17.2
2023/12/08 13:50:00, 0.0,17.3
2023/12/08 14:00:00, 0.0,17.5
2023/12/08 14:10:00, 0.0,17.4
2023/12/08 14:20:00, 0.0,17.8
2023/12/08 14:30:00, 0.0,18.0
2023/12/08 14:40:00, 0.0,19.1
2023/12/08 14:50:00, 0.0,18.4
2023/12/08 15:00:00, 0.0,18.2
2023/12/08 15:10:00, 0.0,18.3
2023/12/08 15:20:00, 0.0,17.7
2023/12/08 15:30:00, 0.0,16.7
2023/12/08 15:40:00, 0.0,16.5
2023/12/08 15:50:00, 0.0,16.0
2023/12/08 16:00:00, 0.0,15.3
2023/12/08 16:10:00, 0.0,13.4
2023/12/08 16:20:00, 0.0,12.8
2023/12/08 16:30:00, 0.0,11.4
2023/12/08 16:40:00, 0.0,10.5
2023/12/08 16:50:00, 0.0, 9.6
2023/12/08 17:00:00, 0.0, 9.1
2023/12/08 17:10:00, 0.0, 9.2
2023/12/08 17:20:00, 0.0, 8.9
2023/12/08 17:30:00, 0.0, 8.1
2023/12/08 17:40:00, 0.0, 8.3
2023/12/08 17:50:00, 0.0, 7.7
2023/12/08 18:00:00, 0.0, 7.7
2023/12/08 18:10:00, 0.0, 7.7
2023/12/08 18:20:00, 0.0, 7.5
2023/12/08 18:30:00, 0.0, 7.2
2023/12/08 18:40:00, 0.0, 7.1
2023/12/08 18:50:00, 0.0, 7.0
2023/12/08 19:00:00, 0.0, 7.0
2023/12/08 19:10:00, 0.0, 7.1
2023/12/08 19:20:00, 0.0, 6.5
2023/12/08 19:30:00, 0.0, 7.1
2023/12/08 19:40:00, 0.0, 6.8
2023/12/08 19:50:00, 0.0, 7.0
2023/12/08 20:00:00, 0.0, 7.0
2023/12/08 20:10:00, 0.0, 6.9
2023/12/08 20:20:00, 0.0, 7.0
2023/12/08 20:30:00, 0.0, 6.5
2023/12/08 20:40:00, 0.0, 6.5
2023/12/08 20:50:00, 0.0, 6.6
2023/12/08 21:00:00, 0.0, 6.7
2023/12/08 21:10:00, 0.0, 6.7
2023/12/08 21:20:00, 0.0, 6.9
2023/12/08 21:30:00, 0.0, 6.9
2023/12/08 21:40:00, 0.0, 6.6
2023/12/08 21:50:00, 0.0, 7.4
2023/12/08 22:00:00, 0.0, 7.2
2023/12/08 22:10:00, 0.0, 7.0
2023/12/08 22:20:00, 0.0, 6.9
2023/12/08 22:30:00, 0.0, 6.8
2023/12/08 22:40:00, 0.0, 6.5
2023/12/08 22:50:00, 0.0, 6.5
2023/12/08 23:00:00, 0.0, 6.1
2023/12/08 23:10:00, 0.0, 6.2
2023/12/08 23:20:00, 0.0, 6.3
2023/12/08 23:30:00, 0.0, 6.5
2023/12/08 23:40:00, 0.0, 6.9
2023/12/08 23:50:00, 0.0, 7.4
